| time (UTC) | temp F | wind direction | speed MPH | gust MPH | rain 1hr in | rain 24hr in | rain mn in | humidity % | barometer mb |
| 20260902024223 | 67 | 231 | 6.0 | 10.0 | 0.00 | 0.00 | 0.00 | 58 | 1016.5 |
| 20260902022248 | 68 | 234 | 9.0 | 17.0 | 0.00 | 0.00 | 0.00 | 57 | 1016.2 |
| 20260902020241 | 69 | 229 | 10.0 | 16.0 | 0.00 | 0.00 | 0.00 | 55 | 1016.1 |
| 20260902014219 | 69 | 227 | 7.0 | 14.0 | 0.00 | 0.00 | 0.00 | 55 | 1015.8 |
| 20260902012240 | 70 | 231 | 10.0 | 16.0 | 0.00 | 0.00 | 0.00 | 54 | 1015.9 |
| 20260902010219 | 71 | 231 | 12.0 | 18.0 | 0.00 | 0.00 | 0.00 | 52 | 1015.7 |
| 20260902004217 | 72 | 230 | 6.0 | 8.0 | 0.00 | 0.00 | 0.00 | 51 | 1015.8 |
| 20260902002226 | 72 | 231 | 10.0 | 14.0 | 0.00 | 0.00 | 0.00 | 51 | 1015.8 |
| 20260901235826 | 73 | 229 | 6.0 | 13.0 | 0.00 | 0.00 | 0.00 | 50 | 1016.0 |
| 20260901233836 | 74 | 232 | 11.0 | 19.0 | 0.00 | 0.00 | 0.00 | 49 | 1016.1 |
| 20260901232720 | 74 | 228 | 8.0 | 15.0 | 0.00 | 0.00 | 0.00 | 49 | 1015.9 |
| 20260901230725 | 74 | 230 | 10.0 | 21.0 | 0.00 | 0.00 | 0.00 | 48 | 1016.3 |
| 20260901224718 | 76 | 230 | 12.0 | 22.0 | 0.00 | 0.00 | 0.00 | 46 | 1016.0 |
| 20260901222726 | 76 | 227 | 11.0 | 17.0 | 0.00 | 0.00 | 0.00 | 47 | 1016.1 |
| 20260901220728 | 76 | 225 | 6.0 | 11.0 | 0.00 | 0.00 | 0.00 | 48 | 1016.2 |
| 20260901215739 | 76 | 226 | 9.0 | 14.0 | 0.00 | 0.00 | 0.00 | 48 | 1016.3 |
| 20260901213724 | 76 | 224 | 6.0 | 10.0 | 0.00 | 0.00 | 0.00 | 47 | 1016.4 |
| 20260901211716 | 75 | 224 | 7.0 | 11.0 | 0.00 | 0.00 | 0.00 | 48 | 1016.3 |
| 20260901205720 | 75 | 223 | 7.0 | 11.0 | 0.00 | 0.00 | 0.00 | 49 | 1016.4 |
| 20260901203724 | 74 | 223 | 6.0 | 9.0 | 0.00 | 0.00 | 0.00 | 49 | 1016.6 |
| 20260901201751 | 74 | 223 | 2.0 | 3.0 | 0.00 | 0.00 | 0.00 | 51 | 1016.7 |
| 20260901195717 | 73 | 223 | 7.0 | 11.0 | 0.00 | 0.00 | 0.00 | 52 | 1016.9 |
| 20260901193725 | 72 | 222 | 3.0 | 4.0 | 0.00 | 0.00 | 0.00 | 53 | 1017.1 |
| 20260901191717 | 71 | 221 | 3.0 | 7.0 | 0.00 | 0.00 | 0.00 | 52 | 1017.2 |
| 20260901185718 | 71 | 222 | 4.0 | 7.0 | 0.00 | 0.00 | 0.00 | 53 | 1017.2 |
| 20260901183803 | 70 | 223 | 5.0 | 7.0 | 0.00 | 0.00 | 0.00 | 55 | 1017.4 |
| 20260901181748 | 68 | 222 | 4.0 | 8.0 | 0.00 | 0.00 | 0.00 | 57 | 1017.4 |
| 20260901175722 | 68 | 222 | 4.0 | 8.0 | 0.00 | 0.00 | 0.00 | 56 | 1017.1 |
| 20260901173717 | 69 | 223 | 7.0 | 10.0 | 0.00 | 0.00 | 0.00 | 56 | 1017.1 |
| 20260901171722 | 67 | 223 | 7.0 | 10.0 | 0.00 | 0.00 | 0.00 | 57 | 1016.8 |
| 20260901165638 | 67 | 223 | 5.0 | 7.0 | 0.00 | 0.00 | 0.00 | 59 | 1016.4 |
| 20260901163644 | 66 | 222 | 3.0 | 6.0 | 0.00 | 0.00 | 0.00 | 60 | 1016.7 |
| 20260901161634 | 65 | 221 | 5.0 | 8.0 | 0.00 | 0.00 | 0.00 | 63 | 1016.7 |
| 20260901155641 | 64 | 222 | 5.0 | 7.0 | 0.00 | 0.00 | 0.00 | 63 | 1016.6 |
| 20260901153617 | 64 | 221 | 5.0 | 7.0 | 0.00 | 0.00 | 0.00 | 65 | 1016.2 |
| 20260901153320 | 64 | 222 | 3.0 | 4.0 | 0.00 | 0.00 | 0.00 | 65 | 1016.1 |
| 20260901151403 | 63 | 222 | 3.0 | 6.0 | 0.00 | 0.00 | 0.00 | 66 | 1016.3 |
| 20260901145316 | 62 | 221 | 3.0 | 6.0 | 0.00 | 0.00 | 0.00 | 65 | 1015.9 |
| 20260901143325 | 62 | 221 | 4.0 | 7.0 | 0.00 | 0.00 | 0.00 | 66 | 1015.7 |
| 20260901142934 | 62 | 221 | 5.0 | 9.0 | 0.00 | 0.00 | 0.00 | 66 | 1015.7 |
| 20260901140946 | 62 | 221 | 3.0 | 4.0 | 0.00 | 0.00 | 0.00 | 66 | 1015.4 |
| 20260901134924 | 62 | 221 | 2.0 | 4.0 | 0.00 | 0.00 | 0.00 | 66 | 1015.3 |
| 20260901132919 | 62 | 219 | 6.0 | 8.0 | 0.00 | 0.00 | 0.00 | 67 | 1015.0 |
| 20260901130923 | 62 | 221 | 4.0 | 7.0 | 0.00 | 0.00 | 0.00 | 67 | 1014.8 |
| 20260901124946 | 62 | 221 | 3.0 | 4.0 | 0.00 | 0.00 | 0.00 | 67 | 1014.9 |
| 20260901122922 | 62 | 221 | 2.0 | 6.0 | 0.00 | 0.00 | 0.00 | 67 | 1014.6 |
| 20260901120945 | 62 | 221 | 4.0 | 7.0 | 0.00 | 0.00 | 0.00 | 67 | 1014.4 |
| 20260901114919 | 62 | 221 | 1.0 | 2.0 | 0.00 | 0.00 | 0.00 | 67 | 1014.6 |
| 20260901112926 | 62 | 221 | 4.0 | 7.0 | 0.00 | 0.00 | 0.00 | 68 | 1014.8 |
| 20260901110924 | 62 | 221 | 2.0 | 3.0 | 0.00 | 0.00 | 0.00 | 68 | 1015.1 |
| 20260901104923 | 62 | 221 | 2.0 | 6.0 | 0.00 | 0.00 | 0.00 | 68 | 1014.8 |
| 20260901102930 | 62 | 221 | 2.0 | 4.0 | 0.00 | 0.00 | 0.00 | 68 | 1014.9 |
| 20260901100951 | 62 | 221 | 3.0 | 6.0 | 0.00 | 0.00 | 0.00 | 69 | 1014.6 |
| 20260901094919 | 62 | 222 | 3.0 | 4.0 | 0.00 | 0.00 | 0.00 | 69 | 1014.6 |
| 20260901092939 | 62 | 221 | 1.0 | 3.0 | 0.00 | 0.00 | 0.00 | 70 | 1014.8 |
| 20260901090947 | 61 | 218 | 1.0 | 2.0 | 0.00 | 0.00 | 0.00 | 70 | 1014.7 |
| 20260901084919 | 61 | 218 | 1.0 | 2.0 | 0.00 | 0.00 | 0.00 | 70 | 1014.6 |
| 20260901082950 | 61 | 0.0 | 0.0 | 0.00 | 0.00 | 0.00 | 70 | 1014.7 | |
| 20260901080732 | 61 | 218 | 1.0 | 2.0 | 0.00 | 0.00 | 0.00 | 69 | 1014.6 |
| 20260901074722 | 62 | 215 | 1.0 | 1.0 | 0.00 | 0.00 | 0.00 | 69 | 1014.6 |
| 20260901072717 | 62 | 220 | 2.0 | 2.0 | 0.00 | 0.00 | 0.00 | 69 | 1014.9 |
| 20260901070727 | 62 | 231 | 2.0 | 4.0 | 0.00 | 0.00 | 0.00 | 68 | 1014.6 |
| 20260901064719 | 62 | 230 | 4.0 | 6.0 | 0.00 | 0.00 | 0.00 | 68 | 1014.8 |
| 20260901062759 | 62 | 231 | 5.0 | 9.0 | 0.00 | 0.00 | 0.00 | 68 | 1014.8 |
| 20260901060736 | 62 | 230 | 3.0 | 6.0 | 0.00 | 0.00 | 0.00 | 69 | 1014.8 |
| 20260901054724 | 62 | 232 | 5.0 | 9.0 | 0.00 | 0.00 | 0.00 | 70 | 1015.0 |
| 20260901052738 | 62 | 232 | 4.0 | 10.0 | 0.00 | 0.00 | 0.00 | 70 | 1015.0 |
| 20260901050725 | 62 | 231 | 5.0 | 8.0 | 0.00 | 0.00 | 0.00 | 69 | 1014.8 |
| 20260901044718 | 62 | 231 | 4.0 | 6.0 | 0.00 | 0.00 | 0.00 | 69 | 1014.6 |
| 20260901042752 | 62 | 231 | 6.0 | 9.0 | 0.00 | 0.00 | 0.00 | 69 | 1014.7 |
| 20260901040546 | 63 | 232 | 4.0 | 8.0 | 0.00 | 0.00 | 0.00 | 69 | 1014.6 |
| 20260901034545 | 63 | 235 | 7.0 | 9.0 | 0.00 | 0.00 | 0.00 | 69 | 1014.1 |
| 20260901032516 | 63 | 235 | 7.0 | 11.0 | 0.00 | 0.00 | 0.00 | 68 | 1014.2 |
| 20260901030524 | 64 | 233 | 4.0 | 8.0 | 0.00 | 0.00 | 0.00 | 68 | 1013.7 |